sat.trackr.live / text

‹ back to catalog

STARLINK-33806

NORAD 63723 · 2025-087AC

PAYLOAD ACTIVE UNKNOWN

§ Identity

Operator
Country
US
Launch date
2025-04-28
Launch site
AFWTR
Launch vehicle
Mass (kg)
RCS (m²)

Purposes: comms

External: N2YO · Heavens-Above · Gunter

§ Orbital elements

Epoch: 2026-05-25T04:40:30.505728Z

Period
94.11 min
Inclination
53.1581°
Eccentricity
0.0000942
Mean motion
15.30202964 rev/d
Perigee alt
474.6 km
Apogee alt
475.9 km
Semi-major
6,853.3 km
B*
4.5106e-4
RAAN
224.1398°
Arg perigee
97.3393°
Mean anomaly
262.7715°
Rev number
6,091

§ Raw data

STARLINK-338061 63723U 25087AC  26145.19479752  .00013025  00000+0  45106-3 0  99942 63723  53.1581 224.1398 0000942  97.3393 262.7715 15.30202964 60912

JSON: /api/v1/satellites/63723 · /tle

For live sub-satellite position, see the globe view (requires WebGL).

§ Visibility from observer

Set your observer location to see the next 7 days of passes ≥ 10°. The values pass through the URL so the page stays shareable.

No JS? Fill the form by hand. The geolocation button needs JavaScript.